Wind_Speed
10 10 9 9 10 10 11 11 11 11 11 12 12 12 12 12 13 13 13 13 12 12 12 12 12 12 13 13 14 15 16 16 16 16 15 14 14 12 11 10 9 7 6 5 8 11 12 12 11 10 10 9 7 7 4 2 5 5 8 7 9 12 10 4 7 15 20 20 23 24 20 21 24 22 25 26 26 26 21 16 12 11 14 17 20 24 25 26
11 10 10 10 10 10 10 10 10 11 11 12 12 12 12 12 12 12 13 13 13 13 12 12 12 12 12 13 13 14 15 15 15 14 15 14 14 13 12 11 9 7 5 5 7 11 12 12 11 10 11 10 8 6 6 2 8 5 6 5 7 11 11 6 8 15 18 19 23 24 21 23 25 24 25 25 25 24 22 20 16 16 20 21 22 22 22 24
10 11 11 11 11 11 11 10 10 10 11 11 12 13 13 13 12 12 12 13 13 13 13 13 12 11 11 12 12 13 14 14 14 14 14 13 13 14 13 12 10 8 6 6 8 12 14 15 12 10 11 11 10 5 3 4 8 5 4 5 6 9 11 7 9 16 17 18 22 24 22 23 24 22 21 21 23 23 23 23 20 22 26 24 25 23 20 22
9 10 10 11 12 12 11 11 11 10 10 11 12 12 13 14 13 12 12 12 13 13 13 13 12 12 11 10 11 12 12 13 14 13 12 12 14 13 14 13 11 10 8 7 9 15 18 16 11 11 12 9 10 6 5 8 8 5 4 4 4 7 8 7 11 15 16 18 21 23 22 23 22 20 19 19 23 25 25 25 19 19 26 26 27 24 21 20
8 8 9 10 11 12 12 12 12 11 11 11 11 12 12 13 13 13 12 12 12 12 13 13 13 12 11 10 10 10 10 11 11 12 12 12 14 14 14 14 13 12 10 9 10 16 20 18 9 7 11 9 6 4 8 10 11 7 3 2 3 5 6 7 10 12 14 17 21 22 22 23 21 19 18 18 25 28 24 25 18 15 22 25 26 24 22 20
8 8 8 8 9 10 11 12 12 12 11 11 12 11 11 12 13 13 13 13 12 12 13 13 13 12 12 11 9 9 10 9 8 9 11 12 13 14 14 14 14 14 11 9 10 16 20 19 12 8 8 11 8 6 8 10 13 8 2 1 1 2 3 7 8 11 12 16 21 21 21 23 20 17 18 18 24 28 24 22 18 15 19 22 23 23 22 21
9 9 9 8 8 9 9 10 11 12 12 12 13 12 12 11 12 13 13 14 13 12 12 13 13 12 12 11 10 10 11 12 10 6 8 11 13 13 14 15 15 14 11 8 8 15 20 18 14 10 7 10 9 5 6 10 13 8 4 1 3 4 0 6 8 9 12 17 20 20 20 22 18 17 18 17 21 27 26 20 17 18 20 20 22 22 21 21
10 10 9 9 9 9 9 9 10 11 11 12 13 13 12 11 11 12 13 14 13 13 13 12 12 12 12 12 11 9 10 15 16 11 7 9 13 14 14 15 15 14 11 8 7 15 19 17 14 12 9 9 6 3 5 10 12 7 4 2 3 5 2 5 7 8 13 18 21 20 20 21 18 16 16 17 21 25 27 21 16 20 21 19 21 21 20 21
10 10 10 10 10 10 10 10 10 10 11 11 12 12 12 11 11 11 12 13 13 13 13 12 12 12 12 12 11 10 11 15 17 15 10 8 11 14 14 14 15 14 11 8 8 16 18 15 13 12 10 7 5 9 8 11 11 6 3 2 2 4 3 4 6 8 13 18 21 20 20 22 20 18 15 18 22 24 26 22 17 20 21 19 20 20 20 21
11 10 10 9 9 10 10 11 10 10 10 11 11 11 11 11 11 11 11 12 13 13 13 13 13 12 12 12 10 10 14 15 14 13 12 11 10 12 15 14 14 14 13 9 7 16 17 16 12 9 8 5 5 10 8 13 12 5 6 2 3 5 5 6 6 7 14 18 20 20 22 23 21 20 19 21 23 25 26 22 18 20 21 20 20 19 19 20
11 10 10 9 9 9 10 10 10 10 10 11 12 11 11 10 10 11 11 11 12 12 13 13 13 12 12 11 10 12 14 16 13 10 11 13 11 11 14 15 15 15 13 10 7 14 19 18 12 7 5 4 4 7 6 14 14 7 10 7 6 8 8 9 7 9 16 19 20 20 22 24 21 20 21 23 24 26 26 21 19 19 19 20 20 19 20 19
11 11 10 10 9 9 9 10 10 10 10 11 11 11 11 10 10 10 10 11 10 11 12 12 13 12 12 10 10 11 11 15 13 6 6 11 12 12 14 15 15 16 14 11 10 16 20 17 12 10 9 6 5 6 4 11 13 7 9 9 10 10 10 12 8 9 16 18 19 20 20 23 23 22 21 22 24 26 26 22 20 19 18 19 18 19 21 19
12 12 11 10 10 10 10 10 11 10 10 10 11 11 11 10 10 10 9 9 10 10 11 12 12 12 12 9 11 11 7 13 14 6 3 8 11 12 14 16 16 17 16 14 13 16 17 15 12 11 12 11 7 6 4 7 11 7 7 8 9 12 12 11 7 8 14 15 18 19 19 23 25 23 22 21 23 26 26 24 21 20 19 19 18 21 22 18
13 12 11 11 10 10 10 10 10 10 10 10 11 11 10 10 10 10 9 9 9 9 10 11 11 11 11 10 12 13 10 11 15 7 3 6 10 12 14 17 18 18 17 17 15 12 12 15 14 11 14 16 10 10 8 7 11 8 8 10 11 13 10 7 7 8 12 15 18 19 18 22 24 23 23 22 24 26 25 25 22 21 22 21 19 23 22 18
14 13 12 11 11 11 10 10 10 9 9 9 10 11 11 10 10 9 9 8 8 8 9 9 10 10 11 12 13 14 12 12 13 9 4 4 8 11 14 17 18 19 18 17 17 11 12 15 12 11 16 18 13 10 6 7 11 10 9 12 12 12 9 8 8 7 9 15 19 18 16 20 23 22 23 23 25 26 25 26 23 22 24 22 20 24 23 21
16 15 14 13 12 12 11 11 10 9 9 9 9 10 10 10 9 9 8 8 7 7 8 9 10 10 12 14 12 12 12 10 9 9 6 6 8 11 14 17 19 20 19 16 16 14 16 19 15 13 18 18 11 8 5 6 11 12 12 12 11 12 11 12 10 6 7 13 19 19 15 20 23 23 24 24 26 28 26 26 24 23 25 22 21 25 25 23
18 17 16 15 14 13 13 12 11 9 8 8 9 9 10 10 8 8 7 7 6 6 6 7 9 9 11 13 12 13 12 9 9 7 5 6 9 10 13 18 20 21 20 17 17 16 17 21 20 18 20 17 12 8 8 10 14 15 14 11 11 11 11 12 11 9 8 10 16 18 16 19 22 23 24 25 26 30 28 28 25 24 25 22 22 24 24 24
19 18 17 16 15 15 14 13 12 10 9 7 7 8 8 7 5 6 7 7 5 4 5 5 5 5 6 7 8 11 9 7 9 7 7 9 10 9 11 16 20 19 19 19 18 15 12 17 20 20 20 17 16 14 15 17 19 20 18 14 14 12 11 11 10 9 9 11 14 16 17 17 20 23 25 26 27 30 30 29 28 26 26 23 23 24 23 24
19 17 16 15 15 15 15 14 13 11 9 8 6 6 5 2 3 7 8 9 6 3 3 3 6 6 6 6 6 4 4 6 9 10 10 11 11 12 11 14 18 17 16 18 18 15 10 11 15 21 23 18 17 17 19 19 15 15 17 18 18 12 9 9 7 6 8 12 15 17 18 16 21 27 27 28 30 32 32 31 29 28 27 24 23 23 22 25
18 16 15 14 14 14 15 15 13 11 9 7 4 3 4 3 6 9 8 6 3 7 5 4 9 9 7 6 4 2 6 8 10 11 12 13 12 13 14 14 16 15 15 15 14 14 12 10 13 19 25 22 15 15 17 17 14 11 11 16 18 11 9 9 5 5 9 13 15 16 17 16 22 28 27 29 32 33 33 31 29 29 30 25 23 24 22 23
17 16 14 14 14 15 14 13 11 10 8 5 0 6 6 5 6 9 10 3 5 12 9 5 9 11 10 6 1 4 10 10 11 11 12 14 13 14 15 15 15 16 17 15 10 10 12 14 14 14 21 22 15 12 14 15 13 11 11 10 17 12 10 9 4 7 12 11 13 15 15 17 21 26 28 28 32 35 35 33 31 32 32 26 24 25 22 22
15 14 14 14 14 15 13 11 9 9 7 5 2 8 7 7 4 5 11 7 5 10 9 9 11 13 11 3 3 11 13 11 12 12 13 15 15 14 14 14 16 15 16 18 13 12 14 17 16 11 13 17 16 15 16 15 13 12 12 7 14 15 12 9 5 10 12 9 11 13 13 15 18 24 28 28 31 36 35 34 33 32 31 27 25 25 23 23
14 14 13 13 14 13 11 9 8 9 9 5 3 6 8 7 4 5 11 10 6 5 6 10 13 13 7 1 8 16 12 10 12 12 14 16 15 14 13 12 15 13 12 17 18 17 16 15 15 13 12 14 15 15 15 17 17 15 13 8 14 18 13 9 12 15 12 8 10 12 14 14 17 23 26 27 30 34 34 35 34 33 31 28 28 29 25 23
13 13 13 12 12 10 8 7 7 11 12 8 3 1 6 6 3 5 9 10 8 6 6 10 11 11 7 5 12 16 11 10 12 12 15 18 17 14 13 11 13 13 12 15 16 18 16 11 11 14 15 16 16 15 15 17 19 16 13 12 13 15 12 11 17 18 12 8 10 15 17 12 14 21 25 26 27 30 31 33 35 35 33 30 31 32 26 23
12 12 12 11 10 7 5 5 6 11 16 12 7 6 5 4 4 6 8 8 7 4 5 10 12 12 12 10 12 13 11 10 11 13 15 15 18 15 12 11 13 15 14 14 15 17 17 12 10 13 16 17 18 18 17 16 17 17 14 11 10 15 14 13 19 21 17 14 16 15 12 7 8 16 25 26 25 26 24 27 33 35 33 32 32 30 26 24
11 11 11 9 8 6 3 4 6 8 13 12 9 10 9 5 5 7 5 7 6 3 5 11 14 12 14 14 10 7 10 12 11 14 15 12 18 16 12 11 12 14 13 13 15 17 17 14 13 15 15 14 17 20 18 17 18 17 15 10 7 13 15 14 19 25 20 14 18 14 6 8 9 10 18 23 24 25 23 23 27 31 32 31 31 28 27 27
10 10 9 8 6 4 2 4 5 7 10 8 4 9 11 4 4 4 3 7 4 6 6 10 10 11 14 15 12 8 8 10 11 15 17 12 17 18 14 11 10 12 13 13 16 17 17 16 16 17 16 16 19 20 16 18 17 14 15 14 11 11 13 14 19 23 18 12 17 15 7 14 15 10 12 16 20 25 25 23 26 32 33 32 32 30 29 29
9 8 8 6 4 3 2 3 4 6 4 4 6 9 8 1 3 3 3 4 3 7 7 9 8 9 11 11 13 11 5 5 13 20 17 10 14 19 18 15 11 11 13 14 17 16 15 17 16 16 18 19 19 18 14 14 18 17 14 14 16 15 12 16 21 20 17 16 19 19 12 13 12 12 12 12 16 20 19 20 24 29 31 33 34 32 31 31
8 7 6 5 3 2 1 2 3 3 3 4 5 5 2 5 4 3 4 2 4 6 7 9 10 10 10 11 16 16 8 6 10 18 16 9 13 19 18 16 12 11 14 17 18 16 13 15 17 15 18 18 15 18 17 13 17 22 17 10 14 19 15 17 19 14 12 18 22 26 21 11 8 12 15 13 15 15 14 18 22 25 27 32 36 34 33 31
7 6 5 4 4 2 1 2 2 1 1 2 2 2 6 7 4 4 3 2 2 4 5 8 11 10 10 13 16 18 15 8 5 12 15 8 11 19 16 13 10 11 16 18 18 17 14 14 18 17 17 17 15 15 17 16 15 18 17 11 11 18 19 16 16 10 3 7 16 28 28 14 7 10 14 16 16 14 15 18 23 27 28 31 35 35 34 32
6 5 4 4 5 3 2 3 1 5 7 8 7 9 9 8 4 4 3 1 1 1 4 6 8 9 11 14 15 16 17 13 9 13 15 10 11 16 13 10 10 10 12 13 14 17 15 13 16 18 15 15 16 16 17 18 15 15 18 14 8 12 16 14 13 8 3 4 6 22 29 14 7 10 12 14 15 15 15 17 22 27 30 32 34 33 34 35
4 4 5 5 5 5 4 3 5 10 14 11 10 11 9 8 3 5 4 4 3 3 5 7 9 10 13 13 14 15 15 15 15 13 12 11 11 15 13 10 10 10 10 12 15 18 17 12 12 18 19 15 13 16 20 19 15 16 21 18 9 8 7 7 8 5 6 9 3 23 26 10 9 12 13 14 15 16 15 17 20 23 26 31 33 33 34 34
2 4 5 6 6 6 9 9 9 13 13 9 11 12 6 4 2 6 4 5 5 6 6 8 10 10 14 14 15 16 13 13 14 12 12 9 10 16 16 12 12 12 10 10 15 19 15 10 8 16 20 18 13 11 15 18 16 14 17 16 10 7 3 2 4 4 6 9 12 23 18 11 14 14 13 13 14 16 17 17 18 19 24 29 31 34 34 32
2 4 6 7 7 6 8 9 11 13 10 9 13 10 5 3 4 6 5 5 5 6 4 9 10 8 13 16 15 16 16 12 8 10 15 11 10 16 18 17 18 16 12 9 13 18 14 8 9 13 15 18 18 13 10 13 18 17 13 10 9 8 6 4 5 7 6 8 18 16 10 14 18 15 13 13 13 15 16 15 15 15 22 28 29 31 32 31
3 6 7 7 6 5 5 7 9 8 6 11 11 6 5 4 7 6 5 5 5 3 2 8 11 8 14 17 15 17 18 15 10 11 15 14 12 14 17 18 17 17 12 8 9 17 18 13 11 12 13 17 19 16 8 5 12 20 18 13 13 12 14 11 9 15 14 12 12 9 14 20 22 18 15 14 14 15 15 16 17 15 18 24 24 27 30 31
4 5 7 8 6 5 4 4 5 3 4 9 8 7 8 7 9 8 5 7 7 3 1 6 8 7 13 17 16 19 17 13 12 14 15 16 14 11 13 15 13 14 12 3 2 9 14 12 12 12 13 17 19 15 10 5 4 13 20 20 18 15 19 16 9 11 10 8 7 12 25 25 22 19 17 16 17 17 16 17 19 17 16 21 22 24 28 29
2 2 6 9 6 5 5 4 4 6 8 9 5 8 10 6 7 7 5 7 6 3 5 5 7 7 12 15 12 12 11 10 12 15 16 15 13 7 6 12 9 6 8 3 3 8 5 5 13 19 17 18 21 16 14 14 6 4 10 16 16 14 16 11 5 6 2 6 6 13 24 22 17 16 16 16 16 16 16 16 18 18 16 18 21 22 23 24
5 5 8 8 7 4 6 6 8 9 10 9 6 7 7 4 5 5 3 5 3 3 9 6 4 0 3 5 6 5 4 10 11 11 15 13 7 5 8 9 9 8 5 4 4 10 4 7 6 19 17 13 17 16 15 17 13 8 7 9 11 9 8 7 5 4 1 5 3 7 11 11 14 18 19 17 15 16 17 16 19 20 17 19 21 22 23 23
10 10 11 6 4 5 4 6 10 9 7 8 7 8 6 3 5 3 2 5 3 4 4 2 3 4 4 6 7 7 3 9 8 4 12 10 2 5 8 6 4 6 5 5 6 9 2 7 3 14 12 8 12 16 15 16 19 18 13 10 10 11 7 6 10 9 5 5 3 6 4 4 16 24 22 20 17 16 15 15 18 20 19 21 22 22 25 25
8 10 9 5 3 7 2 5 9 6 4 7 5 6 6 4 6 3 4 7 4 4 3 4 7 4 1 6 6 10 6 9 8 4 6 5 6 4 4 2 2 4 6 6 2 1 5 8 8 13 12 11 14 16 18 18 17 15 13 11 11 15 13 8 13 14 13 11 5 5 2 5 19 24 20 19 17 13 11 12 15 17 18 20 21 22 23 24
6 8 9 9 5 11 8 3 6 4 6 7 3 3 3 4 6 1 3 7 4 3 2 4 5 4 2 4 6 10 8 5 4 6 2 5 10 6 2 1 4 9 10 3 5 6 9 4 10 14 13 15 16 14 18 23 18 14 15 14 11 16 19 12 9 9 12 18 17 14 7 9 20 21 18 16 12 10 10 10 13 17 18 20 22 23 23 23
5 7 8 6 5 10 8 4 6 7 5 1 2 3 2 3 6 2 2 4 5 6 6 4 2 3 4 2 5 9 7 2 6 6 2 3 4 3 5 5 3 5 6 2 6 4 6 4 8 11 12 16 17 13 15 19 14 11 13 13 9 8 7 2 3 5 15 20 22 21 13 14 20 19 20 18 11 9 9 9 13 17 19 21 23 25 26 24
4 7 7 2 5 7 6 5 6 7 5 1 1 1 0 2 4 3 2 0 3 5 5 6 7 6 5 3 5 5 4 6 4 3 3 3 2 3 2 2 2 2 4 4 3 3 2 4 2 5 8 10 13 15 15 11 7 9 11 9 3 8 9 7 5 9 19 22 22 17 8 14 21 17 20 22 12 8 8 7 11 14 17 21 23 26 27 25
2 5 8 2 3 3 7 5 6 4 5 4 3 5 2 3 3 5 6 3 4 4 4 5 6 5 7 7 5 2 1 8 9 5 3 5 3 3 4 5 2 4 8 7 4 1 3 5 4 2 5 7 10 12 12 8 6 9 10 8 2 10 9 6 5 12 17 16 21 16 7 17 24 18 20 23 15 9 8 5 4 9 13 17 20 24 27 26
2 4 7 3 3 2 3 4 5 3 2 3 3 4 4 4 4 5 6 5 4 5 5 4 2 3 8 7 5 4 4 8 9 4 2 4 2 4 3 4 2 7 8 7 3 5 8 6 7 9 6 4 5 4 4 7 9 10 11 9 1 5 6 7 11 19 16 11 17 18 17 23 24 20 21 22 17 11 8 6 3 6 12 16 17 20 21 23
5 6 5 6 4 3 1 2 4 3 3 4 5 1 2 4 3 3 3 3 2 4 5 3 3 4 6 5 4 5 5 6 6 5 3 2 1 2 4 3 2 6 6 4 4 8 10 6 8 10 9 7 6 6 4 3 2 7 12 10 2 9 9 7 11 18 16 14 15 19 28 31 23 20 21 19 15 11 9 9 8 7 9 13 16 18 17 16
9 8 4 1 1 1 1 2 2 2 2 3 5 2 2 1 3 2 3 2 2 2 3 3 4 4 2 5 4 4 4 6 6 4 3 2 1 3 6 6 3 3 2 2 4 8 11 9 7 4 5 5 6 8 9 7 5 5 11 11 5 5 7 5 10 16 16 13 15 20 32 33 26 23 24 21 17 11 7 7 8 8 8 10 13 16 17 16
6 7 2 1 2 2 1 2 4 3 2 1 3 1 3 2 4 4 4 4 2 1 2 2 4 4 1 5 5 3 4 6 6 4 3 3 3 5 5 5 5 5 2 0 4 7 8 10 7 3 1 2 4 5 9 9 7 3 4 2 6 6 3 2 7 14 10 9 18 27 31 31 29 28 26 24 19 13 8 6 6 5 5 6 11 13 15 16
7 7 5 6 4 2 1 0 4 4 2 3 4 3 3 4 5 4 5 7 2 2 2 3 4 3 3 4 6 5 5 8 9 5 2 3 3 3 5 5 6 7 4 1 3 6 6 5 5 4 3 1 2 1 5 9 10 9 7 8 11 12 9 5 7 7 3 13 28 33 32 30 29 28 25 23 20 15 14 14 11 6 2 1 6 11 14 15
8 8 8 8 6 2 2 1 1 2 3 4 4 3 4 6 6 5 5 8 7 3 2 3 3 2 2 3 6 5 4 6 8 5 1 3 1 1 4 5 5 7 4 3 2 5 8 3 2 3 5 5 2 2 0 3 6 7 7 6 5 9 12 10 9 6 9 25 34 33 35 34 29 27 27 24 21 18 18 21 20 14 8 7 8 11 13 14
7 7 8 9 6 4 4 2 1 1 3 7 5 3 4 6 6 5 5 7 9 8 6 5 5 5 7 8 9 7 4 4 4 4 2 2 2 1 3 5 2 7 4 1 3 3 6 1 1 1 0 1 1 2 3 2 3 4 5 4 1 3 6 8 8 9 14 27 36 36 37 36 32 30 28 25 22 21 23 25 22 17 12 10 9 13 14 14
9 9 9 8 7 7 3 2 1 1 2 5 5 5 5 4 3 4 4 5 5 6 8 7 6 7 11 14 16 15 12 9 9 11 9 5 4 4 5 6 3 3 1 1 1 3 6 4 4 1 4 4 3 4 5 4 2 4 5 3 2 3 1 6 11 13 12 18 31 35 32 33 33 30 26 24 23 22 24 26 24 18 14 10 6 9 14 15
Wind_Direction
317 314 310 305 299 293 286 281 277 275 275 272 270 270 270 271 272 274 274 273 272 271 271 268 262 254 248 246 243 242 243 244 243 242 239 235 234 227 220 222 230 236 233 218 201 189 192 185 173 185 183 163 125 114 115 186 232 297 329 335 5 13 15 53 139 154 155 156 161 161 157 154 150 145 143 144 143 143 140 141 155 165 162 157 149 146 146 147
322 320 318 315 308 302 295 289 282 277 275 273 271 270 268 267 267 268 270 270 269 269 270 270 269 262 253 247 244 243 242 243 244 242 238 233 232 229 221 219 224 232 229 212 195 183 180 172 167 180 171 134 99 92 76 190 233 285 317 330 10 20 32 67 146 159 158 156 161 163 162 160 155 150 152 149 145 147 141 145 165 167 160 158 153 152 150 147
324 323 323 320 315 310 306 301 293 285 278 274 272 271 270 268 264 264 264 266 266 267 268 268 270 268 260 252 246 244 242 243 241 239 238 230 228 228 223 216 216 223 222 213 188 174 172 162 155 157 148 120 103 103 67 210 233 267 304 330 4 20 38 74 138 156 162 159 160 165 168 163 158 159 163 152 142 140 137 147 165 165 162 160 157 158 156 150
325 323 323 321 318 314 311 309 304 299 290 280 274 270 269 269 267 264 260 260 261 262 264 266 268 269 268 258 249 244 242 244 240 236 235 229 224 222 223 217 211 219 224 217 186 177 169 144 132 131 129 124 110 131 221 227 243 275 302 329 6 24 37 87 137 150 157 163 162 165 168 160 156 162 165 152 138 131 141 165 173 160 161 161 159 161 160 155
329 326 324 321 319 315 313 311 308 305 299 291 281 273 269 268 269 268 263 259 256 256 258 262 264 267 269 263 254 242 237 243 240 230 227 225 220 217 220 216 210 215 222 216 193 187 167 132 131 142 131 145 129 160 216 234 253 274 308 337 16 30 40 83 132 153 156 164 168 170 168 159 158 163 161 150 141 134 148 181 187 163 160 160 160 162 162 159
334 332 330 326 322 318 315 313 310 309 304 298 291 283 276 270 269 269 267 262 256 253 251 255 259 263 266 264 256 239 226 229 235 226 220 218 217 215 214 213 210 213 221 220 200 194 170 138 153 179 151 161 170 193 211 246 257 267 299 166 227 336 23 64 111 153 163 166 167 170 166 161 163 162 156 150 145 141 150 185 194 171 161 159 161 163 163 160
334 332 331 327 325 321 318 316 313 312 309 303 296 291 286 278 273 270 270 266 260 255 249 247 251 255 260 261 256 242 224 222 228 217 207 211 213 212 211 210 209 211 221 221 205 200 177 147 155 175 182 164 157 183 204 246 256 261 282 224 215 235 336 62 93 148 166 168 165 164 162 162 167 162 156 150 148 149 155 178 186 166 160 160 163 165 163 159
333 329 325 323 321 318 317 315 314 314 312 308 302 297 293 287 279 272 270 267 264 260 253 245 243 247 253 256 253 244 224 223 228 220 200 202 207 210 209 207 208 207 216 219 205 199 175 147 151 166 180 160 148 209 205 233 253 261 270 300 216 190 145 75 95 149 164 167 166 163 160 160 162 158 156 151 151 154 154 166 171 161 160 160 165 167 163 160
335 331 325 321 316 313 311 308 307 308 308 307 305 301 297 291 284 275 271 268 265 262 257 250 241 239 243 250 251 244 232 228 230 226 215 207 203 205 205 204 206 202 207 216 206 199 174 145 155 167 183 180 212 241 224 228 255 266 211 255 236 176 140 96 107 157 168 168 169 167 159 155 155 152 155 153 152 153 152 163 169 160 160 160 165 166 163 163
340 336 330 323 316 310 306 304 302 300 300 301 301 303 302 296 287 279 273 267 265 263 260 254 245 238 236 242 242 236 240 242 240 231 222 218 210 204 203 200 198 197 203 205 211 206 174 140 141 148 185 200 230 240 235 236 253 256 197 204 240 193 155 134 115 154 169 167 170 172 161 155 157 153 152 152 152 152 151 166 172 160 162 163 165 166 164 165
340 337 332 324 316 307 302 301 301 299 295 295 295 298 301 301 293 283 276 269 264 260 260 255 249 240 233 235 231 231 246 253 247 237 228 219 214 207 199 196 192 191 198 193 204 200 161 136 139 149 207 227 240 249 254 241 246 243 212 188 179 189 168 154 138 156 169 167 168 173 164 156 157 153 149 149 152 153 153 166 170 162 164 163 167 166 164 165
336 333 328 322 315 306 303 300 302 302 296 293 292 293 297 301 297 289 279 272 265 258 257 255 250 242 235 230 218 226 257 266 248 222 234 221 212 210 193 189 188 185 192 191 187 179 151 140 164 185 217 232 238 254 261 237 245 245 209 184 171 187 176 161 150 160 173 173 168 170 166 159 157 154 151 151 152 151 154 166 168 165 163 164 167 161 162 163
336 333 328 324 318 312 308 303 302 303 298 292 290 291 292 295 297 295 286 276 268 260 254 252 250 243 237 221 200 208 241 268 254 216 224 225 206 207 193 183 183 182 187 186 169 165 156 156 183 202 220 221 216 221 186 203 235 228 193 201 185 171 162 153 142 159 177 181 173 172 170 163 160 159 158 157 152 150 158 166 167 167 165 171 169 158 165 163
338 336 332 328 324 320 316 309 305 303 297 290 287 287 288 291 293 293 290 279 270 261 252 250 248 238 231 212 200 208 208 236 255 250 231 228 205 200 192 184 182 179 187 187 159 157 182 180 196 220 211 205 195 195 177 171 215 208 181 209 199 171 156 145 140 150 174 179 175 178 180 171 165 165 169 165 154 153 162 165 167 170 170 180 172 159 170 168
340 339 336 332 329 326 323 316 310 304 296 287 282 281 282 287 290 292 293 282 270 261 253 243 237 231 219 206 200 211 217 230 260 271 240 211 204 197 191 185 181 178 187 188 158 157 206 197 210 230 200 195 189 186 180 171 202 207 194 200 202 194 173 159 160 156 176 179 179 184 186 182 174 171 175 171 158 157 165 166 167 173 176 187 173 160 175 174
341 340 338 336 335 333 332 329 323 313 301 288 280 277 276 280 287 294 296 288 274 256 251 241 234 225 206 205 207 215 223 233 255 261 237 200 186 186 188 183 179 180 182 182 171 178 201 197 206 213 191 186 176 174 192 195 200 208 211 200 198 202 174 161 170 182 197 187 186 188 189 190 184 178 177 175 165 161 168 167 167 175 184 192 172 165 181 175
340 339 338 338 339 340 341 339 335 328 315 296 279 269 267 274 289 303 304 298 283 255 244 235 234 229 216 218 226 232 233 226 227 230 212 178 165 174 186 182 179 182 181 185 194 192 193 197 202 200 186 177 166 180 223 223 207 202 208 204 202 211 192 176 174 182 197 190 191 194 196 195 192 186 179 179 174 165 167 168 168 176 187 192 170 174 189 171
338 337 336 337 339 341 342 340 337 333 326 314 284 264 262 271 302 328 322 306 287 252 237 226 221 215 222 246 253 248 257 246 221 195 169 161 156 177 193 181 178 182 187 196 200 190 190 202 207 203 194 185 175 190 220 216 201 194 198 194 188 198 208 207 196 196 197 186 191 198 197 194 195 191 181 182 178 167 167 169 171 177 189 192 173 182 192 166
337 336 335 338 340 340 342 339 336 330 326 323 293 258 251 249 8 348 322 306 289 230 207 201 185 155 97 20 330 245 232 239 209 177 172 164 158 182 193 183 182 183 192 204 199 191 192 199 209 208 203 198 184 189 208 210 206 202 200 191 184 187 199 208 211 215 205 190 193 197 197 197 198 195 185 183 178 169 170 172 175 179 188 193 178 188 193 168
336 336 336 338 340 341 341 339 337 330 325 326 307 216 188 130 39 345 306 300 258 192 192 179 178 168 115 54 352 212 191 210 197 180 177 161 161 193 194 185 186 185 193 200 196 195 199 203 214 211 203 199 194 201 214 227 250 258 234 195 180 184 182 181 200 200 189 189 191 195 200 200 198 196 188 183 178 171 171 174 176 179 185 189 180 190 194 173
337 338 338 337 339 341 343 343 342 337 335 334 280 150 174 161 61 339 296 281 182 189 200 207 184 172 151 130 43 193 190 192 184 188 185 164 173 201 199 187 186 194 193 178 176 201 205 211 220 216 205 198 198 223 237 246 253 262 269 208 173 185 185 174 204 184 174 187 191 188 193 197 196 193 187 186 183 176 173 175 178 182 186 182 176 192 197 176
338 339 338 339 340 341 346 352 355 359 10 10 145 161 201 205 129 312 280 269 217 194 202 211 181 154 145 144 229 196 193 192 182 187 188 177 181 195 197 188 186 202 195 169 176 208 209 216 220 214 209 202 198 219 241 254 250 247 270 244 172 172 161 150 167 168 165 180 190 179 175 185 191 190 186 187 191 183 175 176 179 185 188 175 172 195 202 180
340 339 338 339 340 341 348 -0 11 20 31 43 124 180 229 232 195 241 258 265 243 205 216 206 173 149 143 165 194 192 196 199 191 188 188 185 181 185 194 190 185 201 200 178 184 202 210 224 218 200 206 212 209 214 227 241 250 252 256 233 172 164 170 173 164 164 164 169 180 160 143 158 176 183 184 186 194 188 177 179 182 184 185 173 173 189 197 187
342 339 338 338 340 342 349 7 27 36 39 38 33 277 257 256 257 250 256 265 244 215 221 209 187 171 175 176 186 197 202 199 199 201 200 189 177 180 192 192 188 198 206 193 191 200 213 236 221 200 203 212 217 220 225 234 241 247 245 223 179 171 199 190 159 161 163 161 169 140 118 131 164 178 185 187 196 196 186 185 184 183 183 179 180 185 186 187
343 339 338 337 342 345 351 29 55 55 44 25 7 3 332 318 323 290 268 272 261 231 213 210 207 192 185 189 192 198 205 211 208 210 217 195 174 179 188 193 196 200 206 201 202 211 218 231 227 209 207 211 219 223 227 233 231 233 238 232 195 177 177 155 152 158 149 157 182 159 112 109 160 178 188 188 193 200 199 196 189 184 185 183 184 186 180 183
344 339 340 337 341 347 13 79 93 69 43 24 11 356 337 335 326 299 285 301 292 247 202 201 211 207 192 192 188 180 205 219 205 210 234 206 168 172 185 200 206 201 206 204 209 222 219 220 222 216 215 215 219 223 222 218 221 227 224 214 186 176 172 162 165 165 156 165 187 184 139 138 158 175 188 190 192 197 205 207 196 190 190 184 184 186 177 181
345 339 339 338 342 355 64 106 104 87 63 55 32 319 306 315 338 323 321 314 270 202 197 194 209 217 201 200 200 187 204 220 200 204 233 217 171 176 190 206 215 203 203 205 212 222 218 216 216 214 218 216 216 222 220 212 213 218 211 196 176 175 185 187 185 183 183 171 169 184 168 143 157 170 180 191 193 193 201 204 198 194 192 184 183 184 177 181
346 341 339 342 348 3 87 117 123 117 106 158 196 262 286 357 49 27 350 328 143 159 191 188 195 208 195 193 198 194 184 197 195 196 214 217 180 185 194 195 203 205 202 212 221 219 215 219 218 212 214 217 221 218 212 203 199 201 201 192 185 182 185 188 191 197 190 161 165 190 178 131 150 170 170 184 187 185 192 195 194 194 189 185 186 183 179 182
346 345 343 350 353 4 112 134 154 193 261 233 215 259 298 108 97 25 325 301 136 157 197 194 199 204 183 173 192 204 188 160 192 193 195 205 186 188 194 193 209 225 209 217 229 221 216 217 211 209 212 214 219 213 204 193 195 202 199 197 195 184 185 198 201 205 181 161 175 189 179 140 134 166 171 184 188 182 185 189 195 197 190 188 189 183 181 184
346 352 0 2 2 5 251 229 167 203 301 28 46 87 101 103 68 339 280 226 134 164 196 211 211 200 175 177 199 208 199 187 191 182 185 200 197 195 199 203 227 236 212 215 231 229 220 204 198 211 219 210 204 206 201 187 189 200 201 226 227 186 185 207 222 252 259 178 191 187 181 169 142 161 176 187 192 189 186 185 191 196 192 190 190 186 184 185
351 3 22 22 21 21 295 272 88 85 74 66 84 101 77 44 357 302 279 299 18 147 216 224 205 191 183 191 205 206 208 207 177 168 182 189 200 207 212 220 225 225 219 220 222 222 218 204 201 213 217 200 195 202 198 191 202 215 216 235 238 179 174 185 210 250 283 283 235 174 173 172 142 158 176 183 185 182 182 183 187 192 190 190 190 186 185 187
3 27 40 42 40 39 41 46 78 88 88 90 96 88 43 4 291 260 309 318 280 289 265 209 176 185 191 196 203 203 208 195 164 164 186 186 200 214 220 220 209 209 222 217 207 210 223 228 208 206 207 190 189 206 201 200 215 219 219 226 211 168 157 164 189 198 208 255 215 150 160 147 109 144 163 165 164 162 168 181 191 193 189 189 189 186 188 191
30 59 57 54 47 54 67 73 91 97 99 101 76 56 24 351 277 255 293 318 303 322 293 195 171 181 191 200 202 198 201 180 159 174 193 196 207 212 213 200 192 209 224 221 208 201 215 237 193 190 204 197 196 206 196 206 221 211 209 216 201 162 136 192 182 167 232 234 161 149 152 122 119 144 156 153 154 153 156 172 186 192 191 190 187 187 190 192
80 77 76 65 53 70 84 86 98 101 100 89 65 38 353 337 317 260 243 307 322 333 294 191 170 174 197 208 199 193 204 194 174 191 196 203 208 209 213 196 189 214 240 259 225 191 191 225 195 188 203 203 205 202 182 205 221 215 209 215 210 183 173 188 173 191 215 154 144 153 149 134 137 145 154 153 155 157 156 164 171 179 192 194 187 185 189 191
118 84 79 69 63 75 78 92 105 106 90 66 54 16 330 323 312 285 241 291 325 338 279 179 164 175 202 211 200 193 205 201 193 198 196 202 203 203 212 204 200 217 232 277 246 191 188 203 195 195 203 203 209 213 210 215 214 213 215 223 236 223 209 211 206 208 193 131 119 124 120 134 139 140 156 159 157 161 157 160 162 161 186 197 192 187 187 188
137 86 71 62 77 97 72 90 103 92 74 51 26 321 312 307 320 329 305 313 326 323 286 178 168 182 200 211 212 200 200 196 185 196 204 201 194 196 209 211 219 219 211 273 325 167 181 209 214 201 189 195 210 217 210 190 175 201 208 224 241 230 220 229 243 233 201 121 106 120 121 131 138 140 155 154 147 151 148 154 159 158 178 195 196 191 188 187
151 101 87 56 54 107 97 79 65 61 62 43 350 306 318 314 327 329 314 340 341 288 300 243 198 196 201 213 221 197 192 193 183 197 206 187 176 185 190 185 184 185 187 212 38 102 106 278 222 190 170 183 204 208 194 187 175 163 198 226 241 229 223 240 299 297 250 102 113 130 130 137 139 139 152 149 136 137 144 154 159 161 175 190 194 194 191 191
90 103 107 63 19 46 82 70 62 59 38 9 313 303 332 332 335 315 289 0 2 305 309 265 196 190 215 208 195 170 193 202 198 209 201 178 156 99 80 120 122 88 118 176 110 111 89 324 205 174 169 180 199 204 198 202 216 239 251 245 242 241 243 250 261 270 102 101 111 113 119 129 136 142 148 144 135 139 151 160 160 162 173 184 190 194 193 193
103 99 98 85 356 0 63 66 53 54 22 340 299 312 339 355 9 14 5 6 15 4 336 227 41 16 10 43 147 176 264 232 238 243 182 175 162 105 92 93 98 73 102 162 148 130 171 296 197 167 180 188 196 202 207 220 227 236 260 267 240 244 260 264 258 243 153 114 139 133 109 118 144 149 148 145 148 153 160 166 166 165 168 177 184 187 191 194
99 95 97 124 267 311 340 61 45 50 348 322 303 320 336 1 20 39 36 33 55 31 52 114 54 72 258 355 173 192 287 271 275 336 146 119 50 108 164 178 219 209 168 154 149 71 310 279 197 183 201 198 195 202 207 217 224 229 251 261 235 234 246 264 272 241 173 139 138 136 114 148 153 156 156 152 155 160 170 180 182 178 172 174 177 177 183 189
75 86 97 119 199 274 287 344 10 345 312 319 343 13 353 2 8 18 55 40 46 23 96 138 58 89 191 325 205 214 280 300 35 36 59 45 45 46 352 328 265 236 206 185 14 357 326 321 151 172 197 192 195 211 210 210 220 227 236 245 234 235 242 247 275 254 157 145 157 146 122 152 157 160 159 157 162 168 175 190 197 195 189 180 177 173 174 180
68 92 92 93 209 252 267 275 302 305 295 262 104 41 12 352 359 26 137 31 49 81 98 109 63 127 137 109 193 219 243 190 73 57 69 56 64 44 26 35 333 258 227 317 19 6 324 20 127 176 201 196 202 211 203 205 218 224 225 230 224 237 245 178 49 74 104 121 143 133 117 145 154 159 157 151 165 177 168 182 195 199 199 190 184 177 174 177
92 118 110 54 260 234 219 244 298 297 271 212 146 252 95 44 16 51 126 353 55 90 110 83 68 95 113 137 193 204 188 156 118 63 112 132 201 271 323 345 314 242 190 148 137 225 282 48 94 194 179 172 181 182 186 198 215 216 212 203 150 46 52 69 64 107 111 119 133 118 105 153 150 157 154 138 141 157 137 157 179 182 192 196 193 187 184 184
124 124 108 74 299 192 191 246 322 295 247 292 286 227 176 94 77 72 73 67 52 66 141 118 67 82 107 122 163 178 116 145 135 102 141 198 244 326 300 276 261 195 195 175 158 113 71 55 23 66 116 122 136 159 188 215 231 220 206 190 92 39 54 66 86 114 110 125 142 124 117 158 149 146 140 126 127 132 104 102 143 148 169 186 190 192 197 198
158 139 126 160 303 18 177 252 323 353 267 266 240 212 193 160 134 94 76 61 48 64 117 142 89 111 122 115 133 137 128 150 158 163 179 209 256 35 357 289 123 136 166 179 160 86 82 64 51 65 66 65 96 127 202 223 238 236 214 203 186 57 59 48 92 114 107 121 146 134 137 151 150 149 141 129 134 135 101 92 109 130 153 163 167 176 191 201
88 101 129 183 231 307 277 260 300 345 348 243 208 127 157 158 122 102 85 49 49 69 77 110 104 114 127 116 127 147 136 135 171 212 187 157 286 50 56 18 95 139 138 144 160 125 106 72 45 68 80 67 36 17 39 139 222 254 227 221 34 77 94 70 93 116 122 128 136 146 154 153 153 156 145 130 135 142 124 121 125 131 148 155 155 155 160 174
71 52 10 272 152 262 177 87 346 329 341 234 189 102 22 86 91 105 78 51 140 95 51 112 93 53 115 144 143 161 165 143 151 177 146 114 340 39 63 50 60 157 151 108 154 136 111 79 37 57 102 62 12 24 46 63 39 310 243 242 321 63 118 82 87 118 136 131 123 147 156 151 147 146 140 134 135 139 137 126 122 129 138 144 147 150 151 151
87 69 15 251 74 11 241 76 27 24 37 107 151 116 326 47 106 115 59 40 146 131 11 139 113 44 73 169 155 140 140 136 138 150 123 60 18 38 47 42 63 82 70 212 174 155 119 89 62 43 188 292 326 39 45 38 43 42 205 163 40 65 101 21 98 125 137 133 139 150 150 142 142 144 144 149 149 147 143 111 91 108 120 136 144 148 153 156
155 141 145 153 128 30 295 16 29 31 51 99 105 61 27 76 103 117 60 40 85 134 56 100 120 75 70 132 144 137 121 110 110 132 139 22 10 35 32 33 60 66 60 65 162 169 157 107 49 38 101 136 299 18 49 48 55 59 71 73 65 64 54 54 105 107 94 132 145 150 142 136 142 146 148 156 163 164 149 126 114 109 83 189 170 155 153 155
175 170 154 138 126 125 173 128 14 14 46 88 105 65 65 88 89 106 91 61 64 84 85 104 117 100 87 142 153 148 145 131 119 125 116 32 37 86 57 67 45 26 41 51 47 168 182 200 340 44 91 88 30 316 30 55 34 28 43 59 78 61 42 52 89 92 117 134 142 146 141 139 146 154 158 163 168 165 148 141 145 152 168 196 188 171 161 152
194 179 158 138 108 101 121 81 329 241 80 84 90 67 90 105 91 98 111 86 74 69 77 94 99 105 112 122 133 133 142 167 157 159 172 70 76 114 132 139 59 12 22 32 28 148 174 188 3 288 297 77 71 289 275 295 320 336 12 14 16 82 39 41 84 119 133 141 149 151 149 151 158 165 169 172 173 165 154 156 161 166 181 191 176 171 169 157
195 184 182 163 110 84 85 76 38 248 144 105 86 69 84 104 115 117 99 90 100 90 87 102 112 125 134 135 137 139 143 154 160 165 174 168 133 161 201 196 160 59 74 173 63 153 174 127 77 337 262 247 247 257 258 256 295 355 0 338 273 207 180 57 100 133 147 155 160 160 161 163 167 173 178 179 180 172 163 166 168 172 192 204 181 169 168 160
Height
3131 3131 3131 3130 3129 3129 3128 3128 3128 3127 3127 3127 3126 3126 3126 3126 3127 3127 3127 3127 3127 3127 3127 3127 3128 3128 3128 3129 3130 3130 3131 3132 3133 3135 3137 3139 3140 3141 3142 3143 3143 3144 3145 3146 3147 3149 3150 3152 3154 3156 3158 3159 3160 3162 3164 3166 3167 3166 3166 3166 3165 3163 3162 3161 3160 3162 3163 3165 3167 3169 3170 3171 3173 3175 3176 3178 3180 3181 3183 3184 3185 3185 3186 3186 3186 3187 3189 3191
3131 3130 3130 3129 3128 3128 3127 3127 3127 3126 3126 3126 3125 3125 3125 3125 3125 3125 3126 3126 3126 3126 3126 3126 3126 3127 3127 3128 3128 3129 3130 3131 3132 3134 3135 3137 3139 3140 3141 3142 3143 3144 3144 3145 3147 3148 3150 3152 3154 3156 3157 3158 3160 3162 3164 3166 3167 3166 3166 3166 3165 3164 3163 3161 3162 3164 3165 3166 3168 3169 3170 3171 3173 3175 3176 3178 3180 3182 3183 3184 3185 3185 3185 3186 3187 3188 3190 3192
3130 3129 3129 3128 3128 3127 3126 3126 3126 3125 3125 3125 3124 3124 3124 3124 3124 3124 3124 3124 3125 3125 3125 3125 3125 3126 3126 3126 3127 3128 3129 3129 3131 3132 3134 3136 3138 3139 3140 3142 3142 3143 3144 3145 3146 3148 3149 3151 3153 3155 3156 3158 3160 3163 3165 3167 3167 3167 3167 3166 3166 3165 3163 3162 3162 3164 3165 3167 3168 3169 3169 3171 3173 3175 3176 3179 3181 3182 3183 3184 3183 3184 3184 3186 3187 3188 3190 3192
3130 3129 3128 3128 3127 3126 3126 3125 3125 3124 3124 3124 3123 3123 3123 3123 3123 3123 3122 3123 3123 3124 3124 3124 3124 3124 3125 3125 3126 3127 3127 3128 3129 3131 3132 3134 3136 3138 3139 3141 3142 3143 3143 3144 3145 3147 3148 3149 3153 3155 3156 3158 3160 3163 3166 3167 3167 3167 3167 3166 3166 3165 3164 3164 3163 3164 3166 3167 3168 3169 3170 3172 3174 3175 3177 3179 3181 3182 3184 3184 3183 3183 3184 3185 3187 3189 3190 3192
3129 3129 3128 3127 3126 3125 3125 3124 3124 3123 3123 3122 3122 3122 3122 3122 3122 3121 3121 3121 3121 3122 3122 3122 3123 3123 3124 3124 3125 3125 3126 3126 3127 3129 3131 3132 3134 3136 3138 3140 3141 3142 3142 3143 3144 3146 3146 3148 3153 3155 3156 3158 3161 3164 3166 3166 3166 3167 3166 3166 3165 3165 3165 3165 3164 3165 3167 3168 3169 3169 3171 3173 3174 3176 3178 3180 3181 3183 3185 3186 3185 3186 3186 3187 3188 3189 3191 3193
3129 3128 3127 3127 3126 3125 3124 3123 3123 3122 3122 3121 3121 3121 3121 3121 3121 3120 3120 3120 3120 3120 3120 3121 3122 3122 3122 3123 3123 3124 3125 3126 3126 3128 3129 3131 3133 3135 3137 3138 3140 3141 3142 3143 3144 3146 3146 3147 3152 3156 3157 3158 3160 3163 3165 3166 3166 3166 3166 3165 3165 3165 3166 3165 3165 3166 3168 3169 3170 3170 3172 3174 3175 3177 3179 3181 3182 3183 3185 3186 3187 3188 3188 3189 3190 3191 3192 3194
3128 3127 3126 3126 3125 3124 3124 3123 3122 3121 3120 3120 3119 3119 3119 3119 3119 3119 3119 3119 3119 3119 3119 3119 3120 3121 3121 3122 3122 3123 3124 3125 3125 3127 3129 3130 3132 3134 3135 3137 3139 3140 3142 3143 3144 3146 3146 3147 3151 3155 3157 3159 3160 3163 3165 3165 3165 3166 3166 3165 3164 3165 3166 3165 3165 3166 3168 3169 3170 3171 3173 3175 3176 3178 3180 3181 3183 3183 3184 3186 3188 3189 3190 3191 3191 3192 3194 3195
3127 3126 3126 3125 3124 3123 3123 3122 3121 3120 3120 3119 3118 3118 3118 3118 3118 3118 3118 3118 3118 3118 3118 3118 3119 3119 3120 3120 3121 3121 3123 3123 3124 3126 3128 3129 3130 3132 3134 3136 3138 3140 3141 3143 3144 3145 3146 3147 3151 3155 3157 3159 3160 3162 3164 3164 3164 3165 3165 3164 3163 3164 3165 3165 3166 3166 3167 3169 3171 3172 3174 3176 3177 3179 3180 3182 3183 3184 3185 3187 3188 3189 3191 3192 3193 3194 3195 3196
3127 3126 3125 3124 3123 3122 3122 3121 3120 3120 3119 3118 3118 3117 3117 3117 3117 3116 3116 3116 3116 3117 3117 3117 3117 3118 3118 3119 3120 3120 3121 3122 3123 3126 3127 3128 3130 3131 3133 3135 3137 3139 3141 3142 3143 3145 3145 3147 3151 3154 3157 3159 3160 3163 3164 3163 3163 3165 3165 3163 3163 3164 3165 3165 3166 3166 3167 3169 3171 3173 3174 3176 3178 3179 3181 3182 3184 3185 3186 3188 3189 3190 3191 3193 3194 3195 3196 3197
3126 3125 3124 3123 3122 3121 3120 3119 3119 3119 3118 3117 3117 3116 3116 3115 3115 3115 3115 3115 3115 3116 3116 3116 3116 3116 3117 3117 3119 3119 3119 3121 3122 3125 3127 3128 3129 3130 3132 3134 3136 3138 3140 3142 3143 3145 3145 3147 3152 3155 3157 3159 3160 3162 3164 3163 3163 3165 3165 3163 3163 3164 3165 3165 3166 3167 3167 3169 3171 3173 3174 3176 3178 3179 3181 3183 3184 3185 3186 3188 3189 3190 3192 3193 3195 3196 3197 3198
3125 3124 3123 3122 3121 3120 3119 3118 3117 3117 3117 3116 3116 3115 3115 3114 3114 3113 3113 3114 3114 3114 3115 3115 3115 3116 3116 3117 3118 3118 3119 3120 3121 3124 3126 3127 3128 3129 3131 3133 3135 3137 3139 3141 3143 3145 3146 3147 3152 3155 3158 3159 3160 3161 3163 3162 3162 3164 3164 3162 3163 3164 3165 3165 3165 3167 3168 3169 3171 3173 3175 3176 3178 3180 3181 3182 3184 3185 3187 3189 3190 3191 3193 3194 3195 3196 3198 3199
3123 3123 3122 3121 3120 3119 3118 3117 3116 3116 3115 3115 3115 3114 3114 3113 3112 3112 3112 3112 3112 3113 3113 3114 3114 3115 3115 3116 3117 3118 3119 3119 3120 3124 3125 3126 3127 3128 3130 3132 3135 3136 3139 3141 3142 3145 3146 3147 3151 3154 3157 3158 3160 3161 3161 3161 3161 3163 3162 3161 3162 3163 3165 3165 3165 3167 3168 3169 3171 3173 3175 3176 3178 3180 3181 3183 3184 3186 3188 3190 3190 3192 3193 3194 3196 3197 3198 3200
3122 3121 3120 3119 3118 3118 3117 3116 3115 3115 3114 3114 3113 3113 3113 3112 3111 3111 3111 3111 3111 3111 3112 3112 3113 3114 3115 3116 3117 3118 3119 3118 3119 3123 3124 3125 3126 3128 3130 3132 3134 3136 3138 3140 3141 3145 3146 3147 3149 3152 3154 3155 3157 3158 3159 3160 3160 3162 3161 3160 3162 3164 3165 3165 3165 3167 3168 3170 3172 3173 3175 3176 3178 3179 3181 3183 3184 3186 3189 3190 3192 3193 3194 3195 3196 3198 3199 3201
3121 3120 3119 3118 3117 3116 3115 3114 3114 3113 3113 3113 3112 3112 3111 3111 3110 3110 3109 3109 3110 3110 3110 3111 3111 3112 3114 3115 3116 3117 3118 3117 3118 3122 3123 3124 3125 3127 3129 3131 3133 3135 3137 3139 3140 3144 3146 3147 3148 3149 3150 3152 3154 3155 3157 3159 3159 3161 3162 3161 3162 3164 3166 3165 3165 3166 3168 3171 3172 3173 3174 3176 3177 3179 3181 3182 3184 3187 3189 3191 3193 3194 3195 3196 3197 3199 3201 3202
3119 3118 3117 3116 3115 3114 3114 3113 3112 3112 3111 3111 3111 3110 3110 3110 3109 3109 3108 3108 3108 3109 3109 3109 3110 3111 3112 3113 3115 3116 3117 3117 3118 3120 3123 3123 3125 3127 3128 3130 3132 3134 3137 3138 3139 3142 3146 3146 3147 3149 3149 3151 3153 3154 3156 3158 3159 3160 3162 3162 3163 3163 3164 3165 3165 3167 3169 3170 3171 3172 3174 3176 3177 3179 3181 3182 3184 3187 3189 3192 3193 3195 3196 3196 3198 3200 3202 3203
3118 3117 3116 3115 3113 3113 3112 3111 3110 3110 3109 3109 3109 3109 3109 3109 3108 3108 3108 3107 3107 3108 3108 3108 3108 3109 3111 3112 3114 3116 3117 3118 3118 3119 3121 3123 3124 3126 3128 3130 3132 3134 3136 3138 3139 3140 3143 3145 3146 3147 3148 3150 3153 3154 3155 3157 3158 3159 3160 3162 3163 3163 3163 3164 3166 3167 3169 3170 3171 3172 3173 3175 3176 3178 3181 3182 3184 3186 3189 3192 3194 3195 3196 3197 3199 3201 3202 3204
3116 3115 3114 3112 3111 3110 3110 3109 3108 3108 3107 3107 3107 3107 3107 3108 3108 3107 3107 3107 3106 3107 3107 3107 3108 3109 3111 3111 3113 3115 3116 3117 3118 3118 3120 3122 3123 3125 3128 3129 3131 3133 3135 3136 3137 3139 3141 3143 3145 3146 3148 3149 3151 3153 3155 3155 3156 3157 3159 3161 3162 3162 3163 3164 3165 3166 3167 3169 3170 3171 3172 3174 3175 3178 3180 3182 3183 3185 3188 3191 3194 3196 3196 3197 3199 3201 3202 3204
3115 3113 3112 3111 3110 3109 3108 3107 3106 3106 3106 3105 3105 3106 3106 3107 3107 3107 3106 3106 3106 3106 3106 3106 3108 3110 3111 3112 3113 3114 3115 3116 3117 3119 3120 3121 3124 3126 3127 3129 3130 3132 3134 3135 3137 3139 3141 3143 3145 3146 3148 3149 3149 3151 3153 3152 3152 3154 3156 3158 3159 3161 3163 3163 3164 3164 3165 3167 3169 3170 3171 3173 3175 3177 3179 3181 3182 3184 3187 3190 3193 3196 3196 3197 3199 3201 3202 3204
3114 3112 3111 3110 3108 3107 3106 3106 3105 3104 3104 3104 3104 3104 3105 3106 3106 3106 3105 3105 3105 3105 3106 3106 3107 3110 3111 3112 3113 3113 3115 3116 3116 3118 3120 3122 3124 3126 3127 3128 3130 3132 3133 3135 3137 3139 3141 3142 3144 3145 3146 3148 3148 3149 3149 3149 3151 3155 3156 3156 3156 3158 3161 3162 3163 3163 3164 3166 3167 3168 3170 3171 3173 3174 3177 3179 3181 3184 3186 3189 3191 3194 3195 3197 3199 3200 3201 3204
3112 3111 3110 3109 3108 3107 3106 3105 3104 3103 3103 3103 3103 3103 3104 3104 3105 3105 3104 3104 3104 3105 3105 3105 3106 3108 3109 3112 3113 3113 3114 3115 3117 3118 3120 3122 3124 3125 3126 3128 3129 3131 3133 3134 3137 3139 3140 3141 3142 3142 3144 3147 3148 3148 3148 3149 3152 3155 3156 3156 3154 3155 3159 3160 3161 3162 3163 3165 3166 3167 3168 3170 3171 3173 3176 3178 3181 3183 3185 3188 3190 3192 3194 3196 3199 3200 3201 3204
3111 3110 3109 3108 3107 3106 3105 3104 3103 3102 3102 3101 3102 3103 3103 3103 3104 3104 3103 3103 3103 3103 3105 3106 3106 3107 3108 3111 3113 3114 3115 3115 3117 3118 3120 3121 3123 3124 3125 3127 3129 3130 3131 3134 3137 3139 3140 3140 3140 3141 3144 3146 3148 3148 3148 3149 3151 3152 3153 3154 3153 3154 3157 3159 3160 3161 3164 3166 3165 3166 3167 3168 3169 3172 3175 3177 3180 3181 3182 3186 3188 3190 3192 3194 3198 3199 3200 3203
3110 3109 3108 3107 3106 3105 3104 3104 3103 3102 3101 3101 3101 3102 3103 3103 3103 3104 3103 3102 3102 3103 3104 3105 3106 3106 3107 3110 3113 3114 3115 3115 3117 3118 3119 3121 3122 3123 3124 3126 3128 3129 3131 3133 3136 3138 3139 3139 3140 3142 3144 3146 3147 3148 3148 3149 3150 3150 3151 3154 3153 3154 3157 3159 3161 3161 3163 3165 3165 3166 3167 3167 3168 3171 3173 3176 3178 3180 3181 3185 3187 3189 3191 3194 3197 3199 3200 3202
3109 3108 3107 3106 3105 3104 3104 3103 3102 3102 3101 3101 3102 3102 3103 3103 3103 3103 3102 3101 3101 3102 3102 3104 3105 3105 3107 3110 3112 3113 3114 3115 3116 3117 3118 3120 3121 3123 3124 3126 3128 3129 3131 3132 3134 3137 3137 3137 3139 3141 3143 3146 3147 3147 3148 3148 3149 3149 3150 3153 3152 3152 3155 3158 3160 3161 3163 3164 3165 3166 3167 3167 3168 3170 3172 3175 3178 3179 3181 3184 3187 3189 3191 3194 3195 3197 3199 3201
3109 3108 3107 3106 3105 3104 3104 3103 3103 3102 3102 3102 3102 3103 3103 3103 3102 3102 3102 3101 3101 3100 3101 3103 3105 3105 3108 3110 3111 3112 3114 3115 3116 3117 3118 3119 3121 3123 3124 3126 3128 3129 3131 3132 3133 3135 3137 3137 3139 3140 3142 3144 3146 3146 3146 3147 3148 3148 3149 3151 3150 3150 3153 3156 3158 3161 3162 3164 3165 3165 3167 3169 3170 3170 3172 3175 3178 3179 3181 3183 3186 3188 3191 3193 3193 3194 3197 3201
3108 3107 3106 3105 3105 3104 3104 3103 3103 3102 3102 3103 3103 3103 3103 3102 3102 3102 3102 3101 3100 3100 3101 3103 3105 3106 3107 3109 3110 3112 3114 3114 3116 3117 3117 3118 3120 3122 3124 3126 3127 3129 3130 3132 3133 3134 3136 3137 3138 3140 3140 3142 3145 3145 3145 3146 3147 3147 3148 3149 3150 3150 3152 3155 3157 3159 3161 3164 3165 3164 3167 3172 3173 3172 3172 3174 3176 3178 3180 3182 3184 3187 3189 3191 3192 3194 3197 3200
3108 3107 3106 3105 3104 3104 3104 3103 3103 3102 3102 3102 3103 3103 3103 3103 3103 3102 3102 3101 3101 3100 3101 3102 3104 3105 3107 3109 3110 3113 3113 3113 3115 3116 3116 3118 3120 3122 3124 3126 3127 3128 3129 3132 3133 3134 3134 3136 3138 3139 3140 3141 3142 3143 3144 3145 3146 3146 3147 3148 3151 3150 3151 3155 3157 3157 3157 3160 3162 3163 3166 3171 3173 3173 3173 3174 3176 3177 3179 3181 3183 3185 3188 3190 3191 3194 3196 3199
3107 3106 3105 3105 3104 3104 3104 3103 3103 3102 3101 3102 3104 3105 3104 3103 3103 3103 3103 3102 3101 3101 3101 3102 3104 3105 3106 3109 3110 3112 3112 3112 3114 3115 3116 3118 3119 3120 3123 3125 3126 3127 3129 3131 3132 3132 3133 3134 3136 3138 3139 3140 3140 3141 3142 3144 3144 3145 3146 3148 3149 3149 3151 3154 3154 3154 3155 3157 3161 3163 3163 3167 3171 3173 3173 3175 3175 3176 3178 3179 3182 3184 3187 3189 3190 3193 3195 3197
3107 3106 3105 3105 3104 3104 3103 3103 3103 3102 3101 3102 3103 3104 3103 3103 3103 3103 3104 3103 3101 3101 3102 3102 3104 3105 3105 3108 3111 3111 3111 3112 3113 3114 3116 3118 3119 3120 3120 3123 3126 3127 3128 3129 3130 3130 3132 3133 3133 3136 3138 3138 3138 3140 3140 3142 3144 3144 3145 3147 3148 3148 3151 3154 3153 3154 3155 3156 3160 3163 3162 3165 3171 3172 3173 3174 3174 3175 3177 3178 3180 3183 3186 3188 3189 3192 3195 3196
3106 3106 3105 3104 3104 3104 3103 3103 3102 3102 3102 3101 3102 3103 3103 3104 3104 3104 3105 3104 3101 3101 3102 3102 3103 3105 3106 3108 3110 3109 3110 3113 3113 3113 3116 3118 3119 3120 3120 3121 3123 3125 3126 3127 3127 3129 3131 3131 3132 3134 3136 3136 3137 3139 3139 3140 3143 3143 3143 3146 3148 3148 3151 3153 3154 3155 3156 3155 3156 3159 3159 3163 3170 3173 3172 3173 3173 3174 3175 3177 3179 3181 3184 3187 3188 3191 3194 3196
3106 3105 3105 3104 3104 3104 3103 3102 3102 3101 3102 3102 3102 3103 3104 3104 3104 3104 3105 3104 3101 3101 3102 3102 3103 3105 3106 3108 3109 3108 3110 3113 3113 3114 3116 3118 3119 3119 3120 3121 3121 3122 3123 3125 3126 3127 3128 3130 3131 3132 3133 3135 3137 3138 3139 3139 3141 3143 3143 3144 3146 3146 3148 3151 3153 3154 3155 3154 3152 3154 3157 3160 3167 3172 3172 3171 3172 3173 3173 3175 3178 3180 3182 3185 3187 3190 3193 3195
3106 3105 3105 3105 3104 3104 3103 3102 3102 3101 3101 3102 3103 3104 3104 3104 3104 3105 3104 3102 3101 3102 3102 3102 3103 3105 3106 3107 3108 3109 3110 3112 3113 3114 3116 3117 3119 3119 3120 3121 3121 3122 3122 3123 3124 3125 3126 3129 3130 3130 3131 3134 3136 3137 3139 3139 3140 3142 3143 3143 3145 3145 3146 3150 3152 3153 3154 3153 3151 3152 3156 3158 3164 3169 3169 3170 3172 3172 3172 3174 3176 3178 3179 3182 3185 3188 3191 3193
3106 3106 3105 3105 3105 3104 3103 3103 3103 3102 3102 3104 3105 3104 3104 3105 3105 3105 3103 3101 3102 3102 3102 3102 3103 3105 3106 3107 3108 3109 3109 3111 3112 3114 3115 3116 3118 3119 3120 3121 3121 3122 3122 3122 3123 3124 3125 3127 3128 3129 3130 3131 3133 3136 3137 3138 3138 3140 3141 3142 3144 3145 3147 3150 3151 3153 3153 3152 3152 3152 3153 3158 3163 3167 3168 3169 3170 3171 3172 3173 3174 3177 3179 3181 3184 3188 3190 3192
3106 3106 3106 3106 3105 3105 3104 3104 3104 3103 3104 3105 3105 3105 3106 3107 3106 3104 3103 3103 3102 3101 3101 3102 3102 3104 3106 3107 3108 3109 3109 3110 3112 3114 3115 3116 3117 3119 3120 3120 3120 3121 3121 3121 3122 3123 3124 3126 3126 3127 3129 3130 3131 3133 3135 3137 3136 3137 3139 3141 3143 3144 3148 3151 3151 3152 3151 3150 3152 3151 3152 3158 3164 3167 3168 3169 3169 3170 3171 3172 3173 3177 3179 3181 3184 3186 3188 3190
3106 3106 3106 3106 3106 3106 3106 3105 3106 3105 3106 3106 3105 3106 3108 3108 3106 3105 3103 3103 3103 3102 3101 3102 3102 3105 3106 3106 3108 3109 3109 3110 3112 3113 3114 3115 3116 3117 3118 3119 3119 3120 3121 3121 3121 3121 3123 3125 3125 3126 3128 3129 3130 3132 3134 3136 3135 3136 3137 3140 3141 3142 3146 3149 3147 3148 3148 3149 3151 3152 3154 3160 3164 3167 3168 3168 3169 3169 3170 3172 3173 3175 3177 3179 3182 3183 3184 3188
3106 3106 3106 3106 3106 3107 3107 3107 3107 3107 3107 3106 3106 3108 3108 3107 3106 3104 3103 3103 3103 3102 3101 3101 3102 3104 3106 3106 3107 3109 3108 3109 3111 3112 3113 3114 3115 3116 3117 3118 3118 3119 3121 3121 3120 3120 3122 3124 3125 3126 3127 3129 3130 3132 3134 3134 3134 3136 3138 3140 3141 3142 3144 3144 3143 3143 3144 3147 3153 3154 3157 3162 3164 3165 3167 3167 3168 3169 3169 3170 3172 3174 3176 3176 3178 3179 3181 3186
3107 3107 3107 3107 3107 3107 3108 3108 3109 3109 3108 3107 3107 3109 3108 3107 3106 3104 3104 3104 3103 3102 3102 3102 3103 3104 3105 3106 3106 3108 3108 3109 3111 3112 3113 3114 3115 3117 3117 3118 3119 3119 3119 3120 3119 3119 3120 3123 3124 3125 3127 3128 3130 3132 3133 3133 3133 3136 3138 3139 3140 3141 3143 3142 3142 3143 3142 3148 3156 3157 3157 3162 3163 3164 3166 3166 3167 3168 3168 3170 3171 3172 3174 3174 3176 3178 3181 3183
3106 3107 3107 3107 3107 3108 3109 3109 3109 3109 3109 3108 3109 3109 3107 3106 3106 3105 3105 3105 3103 3103 3103 3103 3103 3104 3105 3105 3105 3106 3108 3109 3110 3111 3112 3113 3115 3116 3116 3116 3117 3117 3118 3120 3119 3119 3120 3121 3122 3124 3127 3127 3129 3131 3132 3133 3134 3136 3137 3139 3138 3139 3140 3141 3143 3142 3142 3150 3158 3158 3157 3160 3163 3164 3167 3168 3168 3169 3169 3170 3171 3172 3173 3175 3176 3178 3181 3182
3106 3107 3107 3106 3106 3108 3109 3109 3109 3109 3109 3109 3109 3109 3107 3106 3107 3106 3105 3105 3105 3104 3103 3103 3103 3104 3104 3105 3105 3106 3108 3109 3110 3110 3111 3113 3113 3114 3114 3114 3115 3116 3117 3119 3119 3120 3122 3122 3121 3123 3126 3127 3129 3131 3132 3132 3134 3135 3136 3137 3138 3138 3138 3140 3141 3141 3143 3152 3159 3162 3162 3162 3163 3164 3166 3168 3169 3169 3169 3170 3171 3172 3173 3175 3176 3177 3180 3182
3106 3106 3106 3107 3108 3108 3109 3110 3109 3109 3109 3110 3109 3108 3107 3107 3107 3107 3106 3106 3105 3105 3103 3103 3104 3104 3104 3104 3106 3108 3109 3110 3111 3111 3112 3113 3113 3113 3114 3114 3115 3116 3117 3119 3120 3121 3123 3124 3122 3123 3126 3128 3129 3130 3131 3132 3133 3135 3136 3137 3137 3138 3137 3139 3139 3138 3142 3151 3158 3163 3165 3165 3164 3165 3166 3167 3169 3169 3169 3170 3171 3172 3172 3174 3176 3177 3179 3181
3107 3106 3106 3108 3109 3108 3110 3110 3109 3110 3110 3110 3110 3109 3109 3108 3108 3108 3107 3107 3106 3106 3106 3105 3105 3106 3106 3106 3108 3110 3111 3111 3112 3112 3112 3113 3113 3113 3114 3115 3117 3118 3118 3120 3121 3122 3123 3123 3123 3124 3126 3128 3128 3129 3131 3132 3134 3136 3138 3137 3137 3137 3137 3137 3136 3135 3137 3144 3151 3159 3165 3166 3165 3166 3167 3168 3168 3169 3169 3169 3171 3172 3172 3173 3175 3176 3178 3179
3106 3106 3107 3109 3110 3109 3110 3109 3109 3110 3110 3110 3110 3110 3110 3109 3108 3109 3109 3108 3108 3107 3107 3107 3108 3109 3109 3110 3112 3113 3113 3113 3112 3112 3113 3114 3114 3114 3115 3116 3117 3118 3119 3120 3121 3121 3122 3121 3121 3123 3125 3126 3127 3128 3131 3133 3134 3137 3138 3137 3137 3138 3138 3136 3135 3134 3133 3137 3142 3149 3159 3165 3166 3166 3169 3169 3168 3168 3169 3169 3170 3172 3172 3173 3174 3176 3177 3178
3106 3106 3108 3110 3111 3110 3110 3109 3110 3111 3110 3110 3109 3110 3111 3110 3109 3109 3109 3109 3109 3108 3108 3109 3110 3110 3111 3113 3115 3115 3115 3114 3114 3115 3116 3116 3116 3117 3117 3117 3117 3118 3119 3121 3121 3122 3123 3121 3122 3123 3123 3125 3126 3128 3131 3133 3134 3135 3136 3137 3137 3138 3136 3135 3136 3136 3133 3137 3141 3144 3153 3163 3166 3166 3168 3169 3169 3169 3169 3169 3169 3170 3172 3172 3173 3175 3176 3177
3106 3106 3107 3109 3111 3111 3110 3111 3112 3112 3110 3109 3109 3110 3111 3111 3110 3110 3109 3109 3110 3110 3110 3111 3110 3111 3112 3114 3115 3115 3115 3116 3117 3118 3118 3118 3118 3118 3118 3118 3118 3118 3120 3122 3123 3123 3123 3122 3122 3122 3122 3124 3125 3127 3130 3132 3133 3134 3135 3136 3137 3135 3134 3135 3137 3136 3135 3139 3142 3145 3154 3162 3165 3167 3168 3168 3169 3169 3169 3169 3168 3169 3170 3171 3172 3174 3175 3176
3107 3107 3106 3108 3110 3110 3110 3111 3111 3111 3110 3109 3109 3110 3111 3111 3111 3111 3110 3110 3111 3111 3111 3112 3112 3112 3113 3114 3115 3115 3115 3116 3118 3119 3119 3119 3120 3119 3119 3119 3119 3120 3121 3122 3123 3123 3123 3123 3122 3121 3122 3124 3126 3128 3130 3130 3131 3132 3134 3135 3136 3135 3134 3136 3136 3136 3137 3141 3142 3145 3154 3160 3163 3167 3168 3168 3169 3169 3168 3169 3169 3170 3170 3170 3171 3173 3175 3176
3107 3107 3106 3108 3110 3109 3109 3111 3111 3110 3110 3109 3110 3110 3110 3111 3111 3111 3111 3111 3111 3111 3112 3113 3113 3113 3113 3115 3115 3115 3116 3116 3118 3119 3119 3119 3120 3120 3120 3120 3120 3121 3121 3122 3123 3123 3123 3123 3123 3123 3124 3126 3128 3130 3131 3131 3132 3132 3133 3134 3135 3133 3134 3136 3137 3136 3139 3144 3144 3145 3151 3158 3163 3166 3167 3169 3169 3169 3169 3169 3169 3169 3170 3170 3170 3172 3174 3175
3107 3107 3107 3108 3109 3109 3110 3111 3111 3110 3110 3110 3110 3110 3110 3111 3111 3111 3111 3112 3112 3112 3113 3113 3113 3113 3114 3115 3116 3115 3116 3117 3117 3119 3119 3119 3120 3120 3120 3120 3121 3121 3122 3122 3123 3124 3124 3124 3124 3125 3126 3128 3129 3130 3130 3131 3132 3131 3132 3134 3134 3133 3134 3137 3138 3138 3140 3143 3146 3147 3148 3155 3161 3164 3166 3169 3169 3168 3169 3169 3169 3169 3169 3170 3171 3171 3173 3174
3107 3108 3108 3108 3108 3109 3110 3111 3111 3111 3110 3110 3111 3111 3111 3111 3111 3111 3112 3112 3112 3112 3113 3113 3114 3114 3114 3116 3116 3116 3117 3118 3118 3119 3119 3119 3119 3120 3121 3121 3121 3121 3122 3121 3122 3124 3124 3124 3126 3127 3127 3128 3129 3129 3130 3130 3130 3130 3131 3133 3133 3133 3135 3138 3138 3139 3140 3142 3147 3150 3150 3152 3159 3162 3165 3168 3169 3168 3167 3168 3169 3170 3169 3169 3171 3172 3173 3174
3105 3107 3109 3109 3109 3110 3110 3111 3111 3111 3110 3110 3111 3111 3111 3111 3111 3112 3112 3112 3112 3113 3113 3114 3114 3115 3115 3116 3117 3117 3118 3118 3118 3119 3120 3119 3120 3120 3120 3121 3121 3121 3121 3121 3122 3124 3124 3125 3127 3128 3128 3129 3130 3130 3130 3130 3131 3132 3133 3133 3133 3133 3136 3139 3139 3140 3141 3142 3146 3152 3153 3154 3158 3162 3165 3167 3168 3167 3167 3168 3169 3170 3170 3170 3170 3171 3172 3174
3105 3106 3107 3108 3109 3111 3111 3111 3111 3111 3110 3111 3111 3111 3111 3111 3112 3112 3112 3112 3113 3113 3114 3114 3115 3116 3115 3116 3117 3118 3118 3118 3119 3120 3121 3121 3121 3120 3120 3120 3120 3120 3121 3121 3122 3123 3124 3125 3126 3127 3128 3129 3130 3131 3131 3132 3132 3133 3134 3134 3134 3135 3137 3139 3139 3139 3141 3143 3146 3151 3154 3157 3160 3162 3163 3165 3166 3166 3168 3169 3170 3171 3171 3171 3171 3172 3172 3173
3106 3107 3107 3107 3108 3109 3110 3110 3111 3111 3110 3111 3111 3111 3112 3112 3112 3112 3112 3112 3113 3114 3114 3115 3115 3116 3116 3116 3117 3118 3119 3120 3120 3121 3122 3121 3121 3121 3120 3120 3120 3120 3120 3121 3122 3123 3124 3126 3126 3127 3128 3129 3130 3131 3133 3134 3134 3134 3135 3136 3136 3137 3138 3139 3139 3138 3141 3145 3148 3151 3153 3156 3160 3161 3161 3162 3164 3166 3168 3169 3169 3170 3170 3170 3171 3172 3173 3173
3106 3107 3107 3107 3107 3108 3109 3110 3110 3110 3111 3111 3111 3112 3112 3112 3112 3112 3112 3113 3113 3113 3114 3115 3116 3116 3116 3117 3118 3119 3121 3121 3121 3122 3122 3122 3122 3122 3121 3121 3121 3121 3121 3122 3123 3124 3125 3126 3127 3128 3129 3130 3131 3132 3134 3135 3135 3136 3136 3138 3138 3138 3139 3141 3140 3139 3141 3145 3148 3150 3151 3153 3157 3159 3160 3161 3164 3166 3168 3168 3168 3168 3167 3168 3170 3172 3173 3174
3105 3106 3107 3108 3107 3108 3109 3110 3110 3110 3111 3111 3111 3112 3112 3112 3112 3112 3113 3113 3113 3113 3114 3115 3116 3116 3116 3116 3116 3117 3119 3120 3120 3121 3121 3122 3122 3122 3122 3122 3123 3123 3123 3123 3124 3125 3126 3127 3128 3129 3131 3131 3132 3133 3134 3135 3136 3137 3137 3138 3139 3139 3141 3142 3141 3141 3143 3145 3146 3149 3150 3152 3155 3158 3159 3161 3163 3165 3166 3168 3168 3168 3168 3168 3170 3172 3174 3175